Location: Unspecified
(38.9833°N, 0.0000°E)
Time: 13:44:27
(UTC+00:00)

Hubble Space Telescope - Visible Passes

Search period start: 18 August 2019 00:00
Search period end: 28 August 2019 00:00
Orbit: 536 x 540 km, 28.5° (Epoch: 17 August)

Date Brightness Start Highest point End Pass type
(mag) Time Alt. Az. Time Alt. Az. Time Alt. Az.
18 Aug 2.7 20:28:58 10° SW 20:31:28 16° S 20:31:28 16° S visible
19 Aug 2.7 20:18:32 10° SW 20:20:56 15° S 20:21:24 15° S visible
20 Aug 2.9 20:08:13 10° SW 20:10:17 13° SSW 20:11:19 12° S visible
21 Aug 3.1 19:58:04 10° SW 19:59:36 12° SSW 20:01:07 10° S visible
